This demonstration page uses our WeatherBlox Daily Observations layout. Learn more.

40.92945, -100.16068

Hourly Observations for March 27, 2018

Temp ( °F °C ) Dew Point ( °F °C ) Humidity (%) Winds ( mph kmh ) Pressure ( in mb ) Visibility ( mi km ) Precip ( " mm )
12:15 am 00:15 Mostly Cloudy 34 0.9 32 -0.1 93 93 NW 5 7 30.15 1021 10 16.0934 0 0
12:35 am 00:35 Cloudy 37 2.7 35 1.6 93 93 NW 5 7 30.12 1020 10 16.0934 0 0
12:55 am 00:55 Mostly Cloudy 37 2.7 34 1.2 90 90 NNW 9 15 30.12 1020 10 16.0934 0 0
1:15 am 01:15 Cloudy 37 2.5 34 1 90 90 WNW 7 11 30.15 1021 10 16.0934 0 0
1:35 am 01:35 Cloudy 37 2.9 34 1.2 89 89 WNW 7 11 30.15 1021 10 16.0934 0 0
1:55 am 01:55 Cloudy 38 3.1 34 1.3 88 88 WNW 7 11 30.15 1021 10 16.0934 0 0
2:15 am 02:15 Cloudy 38 3.4 35 1.5 88 88 NW 8 13 30.18 1022 10 16.0934 0 0
2:35 am 02:35 Partly Cloudy 36 2.2 33 0.3 87 87 NW 8 13 30.18 1022 10 16.0934 0 0
2:55 am 02:55 Clear 34 1 32 -0.2 92 92 NW 7 11 30.21 1023 10 16.0934 0 0
3:15 am 03:15 Clear 33 0.3 31 -0.5 94 94 NW 8 13 30.21 1023 10 16.0934 0 0
3:35 am 03:35 Clear 32 0 30 -0.9 94 94 NW 8 13 30.21 1023 10 16.0934 0 0
3:55 am 03:55 Clear 33 0.3 31 -0.5 94 94 NW 10 17 30.21 1023 10 16.0934 0 0
4:15 am 04:15 Clear 32 0.1 31 -0.6 95 95 NW 9 15 30.21 1023 10 16.0934 0 0
4:35 am 04:35 Clear 33 0.7 32 -0.1 94 94 NNW 8 13 30.21 1023 10 16.0934 0 0
4:55 am 04:55 Clear 33 0.5 31 -0.5 93 93 NNW 8 13 30.21 1023 10 16.0934 0 0
5:15 am 05:15 Clear 32 0 30 -1.2 92 92 N 7 11 30.21 1023 10 16.0934 0 0
5:35 am 05:35 Clear 31 -0.8 28 -2 92 92 NNW 5 7 30.21 1023 10 16.0934 0 0
5:55 am 05:55 Clear 30 -1.1 28 -2.2 92 92 N 6 9 30.21 1023 10 16.0934 0 0
6:15 am 06:15 Mostly Cloudy 31 -0.6 29 -1.6 93 93 WNW 6 9 30.24 1024 10 16.0934 0 0
6:35 am 06:35 Partly Cloudy 31 -0.6 29 -1.9 91 91 NW 6 9 30.24 1024 10 16.0934 0 0
6:55 am 06:55 Clear 31 -0.8 28 -2 92 92 NW 6 9 30.24 1024 10 16.0934 0 0
7:15 am 07:15 Clear 29 -1.4 27 -2.6 92 92 NW 6 9 30.27 1025 10 16.0934 0 0
7:35 am 07:35 Sunny 29 -1.5 27 -2.6 92 92 NW 9 15 30.27 1025 10 16.0934 0 0
7:55 am 07:55 Sunny 31 -0.8 29 -1.9 92 92 NW 9 15 30.24 1024 10 16.0934 0 0
8:15 am 08:15 Sunny 32 -0.2 29 -1.5 91 91 NW 8 13 30.27 1025 10 16.0934 0 0
8:35 am 08:35 Sunny 33 0.7 31 -0.3 93 93 NW 8 13 30.27 1025 10 16.0934 0 0
8:55 am 08:55 Sunny 35 1.8 32 -0.1 87 87 NW 12 19 30.27 1025 10 16.0934 0 0
9:15 am 09:15 Sunny 36 2 31 -0.5 84 84 NW 9 15 30.27 1025 10 16.0934 0 0
9:35 am 09:35 Sunny 35 1.8 31 -0.5 85 85 NW 8 13 30.27 1025 10 16.0934 0 0
9:55 am 09:55 Sunny 37 2.6 32 0 83 83 NNW 9 15 30.24 1024 10 16.0934 0 0
10:15 am 10:15 Sunny 40 4.3 33 0.5 77 77 N 10 17 30.24 1024 10 16.0934 0 0
10:35 am 10:35 Sunny 42 5.5 32 0.2 69 69 NNW 14 22 30.21 1023 10 16.0934 0 0
10:55 am 10:55 Sunny 42 5.7 32 0.1 68 68 NNW 12 19 30.21 1023 10 16.0934 0 0
11:15 am 11:15 Sunny 44 6.5 31 -0.3 62 62 N 10 17 30.21 1023 10 16.0934 0 0
11:35 am 11:35 Sunny 46 7.7 31 -0.5 56 56 N 8 13 30.21 1023 10 16.0934 0 0
11:55 am 11:55 Sunny 47 8.5 29 -1.4 50 50 N 7 11 30.18 1022 10 16.0934 0 0
12:15 pm 12:15 Sunny 47 8.5 28 -2.3 47 47 N 5 7 30.18 1022 10 16.0934 0 0
12:35 pm 12:35 Sunny 48 8.9 28 -2 47 47 N 7 11 30.18 1022 10 16.0934 0 0
12:55 pm 12:55 Sunny 49 9.7 28 -2.2 44 44 N 5 7 30.15 1021 10 16.0934 0 0
1:15 pm 13:15 Sunny 50 9.8 28 -2 44 44 N 5 7 30.15 1021 10 16.0934 0 0
1:35 pm 13:35 Sunny 51 10.5 28 -2.3 41 41 Calm 30.15 1021 10 16.0934 0 0
1:55 pm 13:55 Sunny 52 10.9 28 -2 41 41 Calm 30.15 1021 10 16.0934 0 0
2:15 pm 14:15 Sunny 52 11.1 26 -3.2 37 37 Calm 30.09 1019 10 16.0934 0 0
2:35 pm 14:35 Sunny 53 11.4 27 -2.9 37 37 Calm 30.09 1019 10 16.0934 0 0
2:55 pm 14:55 Sunny 54 12 27 -3 35 35 Calm 30.06 1018 10 16.0934 0 0
3:15 pm 15:15 Sunny 55 12.6 25 -4.1 31 31 NNE 3 6 30.06 1018 10 16.0934 0 0
3:35 pm 15:35 Sunny 55 12.6 25 -4.1 31 31 Calm 30.06 1018 10 16.0934 0 0
3:55 pm 15:55 Sunny 56 13.2 25 -3.8 31 31 SW 5 7 30.03 1017 10 16.0934 0 0
4:15 pm 16:15 Sunny 56 13.1 24 -4.4 30 30 Calm 30.03 1017 10 16.0934 0 0
4:35 pm 16:35 Sunny 56 13.5 25 -4.1 29 29 Calm 30 1016 10 16.0934 0 0
4:55 pm 16:55 Sunny 57 13.7 24 -4.3 29 29 ESE 5 7 30 1016 10 16.0934 0 0
5:15 pm 17:15 Sunny 57 14.1 25 -4 29 29 SW 6 9 30 1016 10 16.0934 0 0
5:35 pm 17:35 Sunny 57 14.1 24 -4.4 28 28 SSE 3 6 30 1016 10 16.0934 0 0
5:55 pm 17:55 Sunny 57 13.8 23 -5 27 27 Calm 30 1016 10 16.0934 0 0
6:15 pm 18:15 Sunny 57 13.8 26 -3.6 30 30 SSE 6 9 30 1016 10 16.0934 0 0
6:35 pm 18:35 Sunny 56 13.6 25 -3.7 30 30 S 8 13 30 1016 10 16.0934 0 0
6:55 pm 18:55 Sunny 56 13.2 24 -4.3 30 30 S 6 9 30.03 1017 10 16.0934 0 0
7:15 pm 19:15 Sunny 55 12.5 28 -2 37 37 SSE 8 13 30.03 1017 10 16.0934 0 0
7:35 pm 19:35 Sunny 53 11.4 30 -1.1 42 42 SSE 9 15 30.03 1017 10 16.0934 0 0
7:55 pm 19:55 Sunny 50 9.9 30 -0.9 47 47 SSE 10 17 30.06 1018 10 16.0934 0 0
8:15 pm 20:15 Clear 49 9.2 32 -0.2 52 52 S 10 17 30.03 1017 10 16.0934 0 0
8:35 pm 20:35 Clear 46 7.8 32 -0.1 58 58 S 9 15 30.03 1017 10 16.0934 0 0
8:55 pm 20:55 Clear 45 7 32 -0.2 61 61 S 9 15 30.03 1017 10 16.0934 0 0
9:15 pm 21:15 Clear 45 7 31 -0.5 59 59 S 12 19 30.03 1017 10 16.0934 0 0
9:35 pm 21:35 Clear 44 6.6 31 -0.7 60 60 S 14 22 30.06 1018 10 16.0934 0 0
9:55 pm 21:55 Clear 43 6.3 30 -1.1 59 59 S 13 20 30.06 1018 10 16.0934 0 0
10:15 pm 22:15 Clear 43 5.9 29 -1.5 59 59 S 10 17 30.06 1018 10 16.0934 0 0
10:35 pm 22:35 Clear 42 5.7 28 -2 58 58 S 10 17 30.06 1018 10 16.0934 0 0
10:55 pm 22:55 Clear 43 6 29 -1.6 59 59 S 10 17 30.06 1018 10 16.0934 0 0
11:15 pm 23:15 Clear 42 5.7 29 -1.5 60 60 S 13 20 30.06 1018 10 16.0934 0 0
11:35 pm 23:35 Clear 41 5.2 29 -1.4 63 63 S 9 15 30.06 1018 10 16.0934 0 0
11:55 pm 23:55 Clear 42 5.5 29 -1.5 61 61 S 10 17 30.06 1018 10 16.0934 0 0

Powered by AerisWeather